Location: Newark
(39.8500°N, 99.5772°W)
Time: 15:06:20
(UTC+00:00)

OTV 5 (USA 277) - Pass Details

Date: 26 August 2019
Orbit: 310 x 324 km, 54.5° (Epoch: 17 October)

Event Time Altitude Azimuth Distance (km) Brightness Sun altitude
Rises 01:42:09 0° 215° (SW) 2,032 ? -4.8°
Reaches altitude 10° 01:44:08 10° 209° (SSW) 1,204 ? -5.2°
Maximum altitude 01:46:43 46° 134° (SE) 428 ? -5.6°
Drops below altitude 10° 01:49:19 10° 58° (ENE) 1,207 ? -6.1°
Sets 01:51:18 0° 53° (NE) 2,037 ? -6.5°
